Location: *
(46.1333°S, 161.2167°W)
Time: 10:30:09
(UTC+00:00)

Cosmos 2298 Rocket - Pass Details

Date: 30 October 2020
Orbit: 777 x 783 km, 74.0° (Epoch: 25 November)

Event Time Altitude Azimuth Distance (km) Brightness Sun altitude
Exits shadow 09:27:04 13° 107° (ESE) 2,190 6.3 -28.3°
Drops below altitude 10° 09:28:09 10° 118° (ESE) 2,367 6.6 -28.4°
Sets 09:31:40 0° 141° (SE) 3,307 7.7 -28.5°
